Meteo Giornale » Osservazioni meteo Svezia » Stockholm-Arlanda

ore: 16:20 - Osservazioni Meteo Stockholm-Arlanda
Lat. 59° 39' N Lon. 17° 57' E Alt. 38 metri s.l.m.

sereno Europe/Stockholm

24 °C

Sereno

Temp. 24 Ore

10 °C

24 °C

Sud-Ovest

18.5 Km/h

Dew point 5 °C

Umidità 29 %

Visibilità  10 Km

Il sole sorge alle ore 03:55

Il sole tramonta alle ore 21:33

Data e Ora Cielo e Fenomeni T °C DP °C Um. % Pres. hPa Vis. km Vento km/h
Oggi h: 16:20 sereno Sereno 24 5 29 1025 10 SO 18.5
Oggi h: 15:50 sereno Sereno 24 5 29 1025 10 SO 18.5
Oggi h: 15:20 sereno Sereno 24 5 29 1025 10 SO 20.3
Oggi h: 14:50 sereno Sereno 24 6 31 1026 10 S/SO 18.5
Oggi h: 14:20 sereno Sereno 23 6 33 1026 10 SO 22.2
Oggi h: 13:50 sereno Sereno 23 6 33 1026 10 O/SO 22.2
Oggi h: 13:20 sereno Sereno 23 8 38 1026 10 S/SO 24
Oggi h: 12:50 sereno Sereno 22 6 35 1027 10 SO 22.2
Oggi h: 12:20 sereno Sereno 22 5 32 1027 10 O/SO 25.9
Oggi h: 11:50 sereno Sereno 22 6 35 1027 10 O/SO 24
Oggi h: 11:20 sereno Sereno 22 7 37 1027 10 O/SO 22.2
Oggi h: 10:50 sereno Sereno 22 7 37 1027 10 O/SO 24
Oggi h: 10:20 sereno Sereno 21 6 37 1027 10 O/SO 22.2
Oggi h: 09:50 sereno Sereno 20 7 42 1027 10 O 16.7
Oggi h: 09:20 sereno Sereno 19 7 45 1027 10 O 14.8
Oggi h: 08:50 sereno Sereno 19 8 48 1028 10 O/SO 13
Oggi h: 08:20 sereno Sereno 18 8 51 1028 10 O/SO 13
Oggi h: 07:50 sereno Sereno 17 8 55 1028 10 O/SO 13
Oggi h: 07:20 sereno Sereno 16 8 58 1028 10 O/SO 13
Oggi h: 06:50 sereno Sereno 15 9 67 1027 10 O/SO 9.3
Oggi h: 06:20 sereno Sereno 14 8 67 1027 10 SO 11.1
Oggi h: 05:50 sereno Sereno 12 7 71 1027 10 SO 11.1
Oggi h: 05:20 sereno Sereno 11 7 76 1027 10 S/SO 13
Oggi h: 04:50 sereno Sereno 11 6 71 1026 10 SO 9.3
Oggi h: 04:20 sereno Sereno 10 6 76 1026 10 S 9.3
Oggi h: 03:50 sereno Sereno 10 6 76 1026 10 S 11.1
Oggi h: 03:20 sereno Sereno 11 6 71 1026 10 S 9.3
Oggi h: 02:50 sereno Sereno 12 6 66 1026 10 S 11.1
Oggi h: 02:20 sereno Sereno 12 6 66 1026 10 S 11.1
Oggi h: 01:50 sereno Sereno 13 6 62 1026 10 S 7.4
Oggi h: 01:20 sereno Sereno 13 6 62 1026 10 S 11.1
Oggi h: 00:50 sereno Sereno 13 6 62 1026 10 S 9.3
Oggi h: 00:20 sereno Sereno 14 6 58 1025 10 S 11.1
Ieri h: 23:50 sereno Sereno 15 6 54 1025 10 S 11.1
Ieri h: 23:20 sereno Sereno 16 6 51 1025 10 S 14.8
Ieri h: 22:50 sereno Sereno 16 6 51 1025 10 S 14.8
Ieri h: 22:20 sereno Sereno 17 6 48 1025 10 S 14.8
Ieri h: 21:50 sereno Sereno 18 5 42 1025 10 S/SO 13
Ieri h: 21:20 sereno Sereno 19 4 37 1025 10 S 13
Ieri h: 20:50 sereno Sereno 20 4 34 1025 10 O/SO 14.8
Ieri h: 20:20 sereno Sereno 21 4 32 1024 10 O/SO 13
Ieri h: 19:50 sereno Sereno 22 4 30 1024 10 O 16.7
Ieri h: 19:20 sereno Sereno 22 4 30 1024 10 O/SO 20.3
Ieri h: 18:50 sereno Sereno 23 4 28 1024 10 O/SO 20.3
Ieri h: 18:20 sereno Sereno 23 3 26 1024 10 O/SO 24
Ieri h: 17:50 sereno Sereno 23 2 25 1024 10 O 22.2
Ieri h: 17:20 sereno Sereno 23 3 26 1025 10 O/SO 20.3
Ieri h: 16:50 sereno Sereno 24 1 22 1025 10 O 24